Location: Barcelona
(41.3829°N, 2.1774°E)
Time: 20:46:17
(UTC+00:00)

ISS - Pass Details

Date: 08 July 2025
Orbit: 413 x 417 km, 51.6° (Epoch: 13 July)

Event Time Altitude Azimuth Distance (km) Brightness Sun altitude
Rises 02:25:39 0° 309° (NW) 2,359 0.1 -17.4°
Reaches altitude 10° 02:27:52 10° 319° (NW) 1,495 -0.8 -17.2°
Maximum altitude 02:30:58 34° 26° (NNE) 709 -1.9 -16.8°
Drops below altitude 10° 02:34:04 10° 94° (E) 1,491 -0.5 -16.5°
Sets 02:36:16 0° 104° (ESE) 2,352 0.4 -16.2°
